Hourly Data Report for September 21, 2017

All times are specified in Local Standard Time (LST). Add 1 hour to adjust for Daylight Saving Time where and when it is observed.

ENNADAI LAKE (AUT)
NUNAVUT

61°07'55.000" N
100°53'02.000" W
353.10 m
2301102
71923
WJC

Download Data

Hourly Data (September 2017)
Hourly Data Report for September 21, 2017
Temp Definition
°C
Dew Point Temp Definition
°C
Rel Hum Definition
%
Wind Dir Definition
10's deg

Wind Spd Definition
km/h
Visibility Definition
km
Stn Press Definition
kPa
Hmdx Definition


Wind Chill Definition


Weather Definition


TIME
00:00 3.0 0.9 86 7 46   96.86     LegendNANA
01:00 3.0 0.5 84 7 50   96.84     LegendNANA
02:00 2.7 0.9 88 7 45   96.82     LegendNANA
03:00 2.4 1.3 93 6 46   96.81     LegendNANA
04:00 2.5 0.7 88 6 45   96.81     LegendNANA
05:00 2.2 1.4 94 6 36   96.84     LegendNANA
06:00 1.8 0.7 93 6 40   96.86     LegendNANA
07:00 1.6 1.0 96 5 40   96.89     LegendNANA
08:00 2.0 1.0 94 5 42   96.91     LegendNANA
09:00 1.7 1.1 96 4 40   96.94     LegendNANA
10:00 1.7 1.0 95 5 45   96.95     LegendNANA
11:00 2.1 1.2 94 5 43   96.97     LegendNANA
12:00
13:00
14:00 2.1 1.1 93 5 42   97.06     LegendNANA
15:00 2.4 1.0 91 5 44   97.13     LegendNANA
16:00 2.6 0.4 85 6 38   97.19     LegendNANA
17:00 2.4 0.6 88 5 39   97.24     LegendNANA
18:00 2.2 0.7 90 4 37   97.30     LegendNANA
19:00 2.1 0.8 91 5 33   97.34     LegendNANA
20:00 2.0 1.2 94 5 29   97.39     LegendNANA
21:00 2.3 0.8 90 4 26   97.41     LegendNANA
22:00 2.3 0.5 88 5 26   97.43     LegendNANA
23:00 2.1 0.1 86 5 30   97.47     LegendNANA

Notes on Data Quality.

Legend

  • E = Estimated
  • M = Missing
  • NA = Not Available
  • ‡ = Partner data that is not subject to review by the National Climate Archives
Date modified: